Weather History for KY51 - November, 2012

Change the Weather History Date:

Sunday, November 18, 2012

  Actual Average (KLSE) Record (KLSE)
Temperature  
Mean Temperature 45 °F 35 °F  
Max Temperature 55 °F 42 °F 68 °F (1953)
Min Temperature 35 °F 27 °F 0 °F (1891)
Degree Days  
Heating Degree Days 20 30  
Month to date heating degree days 462  
Since 1 July heating degree days 1090  
Cooling Degree Days 0 0  
Month to date cooling degree days 0  
Year to date cooling degree days 782  
Moisture  
Dew Point 32 °F    
Average Humidity 63    
Maximum Humidity 87    
Minimum Humidity 41    
Precipitation  
Precipitation 0.00 in 0.06 in 1.12 in (1957)
Month to date precipitation 1.21  
Year to date precipitation 30.90  
Snow  
Snow 0.00 in 0.20 in 11.00 in (1957)
Month to date snowfall 1.5  
Since 1 July snowfall 1.7  
Snow Depth -    
Sea Level Pressure  
Sea Level Pressure 30.26 in    
Wind  
Wind Speed 10 mph (SSE)    
Max Wind Speed 15 mph    
Max Gust Speed 18 mph    
Visibility 9 miles    
Events      
T = Trace of Precipitation, MM = Missing Value Source: NWS Daily Summary

Daily Weather History Graph

Daily Weather History Graph

Search for Another Location

Airport or City:

Trip Planner

Search our weather history database for the weather conditions in past years. The results will help you decide how hot, cold, wet, or windy it might be!

Date:

Astronomy

Nov. 18, 2012 Rise Set
Actual Time 7:01 AM CST 4:35 PM CST
Civil Twilight 6:30 AM CST 5:06 PM CST
Nautical Twilight 5:55 AM CST 5:41 PM CST
Astronomical Twilight 5:21 AM CST 6:15 PM CST
Moon 11:27 AM CST (11/18) 9:58 PM CST (11/18)
Length of Visible Light 10h 35m
Length of Day
9h 33m
Waxing Crescent, 30% of the Moon is Illuminated
Nov 18
Waxing Crescent
Nov 20
First Quarter
Nov 28
Full
Dec 6
Last Quarter
Dec 13
New

Hourly Weather History & Observations

Time (CST) Temp. Windchill Dew Point Humidity Pressure Visibility Wind Dir Wind Speed Gust Speed Precip Events Conditions
12:15 AM 41.0 °F 35.2 °F 32.0 °F 70% 30.34 in 10.0 mi SSE 9.2 mph - N/A   Clear
12:35 AM 41.0 °F 34.7 °F 32.0 °F 70% 30.34 in 10.0 mi SSE 10.4 mph - N/A   Clear
12:55 AM 39.2 °F 32.5 °F 32.0 °F 75% 30.33 in 10.0 mi SSE 10.4 mph - N/A   Clear
1:15 AM 39.2 °F 32.5 °F 32.0 °F 75% 30.33 in 7.0 mi SSE 10.4 mph - N/A   Clear
1:35 AM 37.4 °F 30.8 °F 32.0 °F 81% 30.33 in 7.0 mi SSE 9.2 mph - N/A   Clear
1:55 AM 37.4 °F 31.4 °F 32.0 °F 81% 30.33 in 7.0 mi SSE 8.1 mph - N/A   Clear
2:15 AM 37.4 °F 32.8 °F 32.0 °F 81% 30.33 in 7.0 mi SE 5.8 mph - N/A   Clear
2:35 AM 37.4 °F 31.4 °F 32.0 °F 81% 30.33 in 7.0 mi SSE 8.1 mph - N/A   Clear
2:55 AM 37.4 °F 30.3 °F 32.0 °F 81% 30.33 in 7.0 mi SSE 10.4 mph - N/A   Clear
3:15 AM 37.4 °F 30.3 °F 32.0 °F 81% 30.32 in 7.0 mi SSE 10.4 mph - N/A   Clear
3:35 AM 37.4 °F 29.8 °F 32.0 °F 81% 30.32 in 7.0 mi SSE 11.5 mph - N/A   Clear
3:55 AM 37.4 °F 29.8 °F 32.0 °F 81% 30.31 in 7.0 mi South 11.5 mph 16.1 mph N/A   Clear
4:15 AM 37.4 °F 29.8 °F 32.0 °F 81% 30.32 in 7.0 mi South 11.5 mph - N/A   Clear
4:35 AM 37.4 °F 30.3 °F 32.0 °F 81% 30.31 in 7.0 mi SSE 10.4 mph - N/A   Clear
4:55 AM 37.4 °F 29.8 °F 32.0 °F 81% 30.31 in 7.0 mi South 11.5 mph - N/A   Clear
5:15 AM 37.4 °F 29.8 °F 32.0 °F 81% 30.31 in 7.0 mi South 11.5 mph - N/A   Clear
5:35 AM 37.4 °F 29.3 °F 32.0 °F 81% 30.30 in 7.0 mi SSE 12.7 mph - N/A   Clear
5:55 AM 37.4 °F 29.8 °F 32.0 °F 81% 30.30 in 7.0 mi SSE 11.5 mph - N/A   Clear
6:15 AM 37.4 °F 29.8 °F 32.0 °F 81% 30.30 in 7.0 mi SSE 11.5 mph - N/A   Clear
6:35 AM 37.4 °F 29.8 °F 32.0 °F 81% 30.29 in 7.0 mi SSE 11.5 mph - N/A   Clear
6:55 AM 37.4 °F 29.8 °F 32.0 °F 81% 30.30 in 7.0 mi SSE 11.5 mph - N/A   Scattered Clouds
7:15 AM 35.6 °F 28.0 °F 32.0 °F 87% 30.29 in 5.0 mi SE 10.4 mph - N/A   Clear
7:35 AM 35.6 °F 27.5 °F 32.0 °F 87% 30.29 in 5.0 mi SE 11.5 mph - N/A   Clear
7:55 AM 37.4 °F 30.3 °F 32.0 °F 81% 30.29 in 5.0 mi SSE 10.4 mph - N/A   Clear
8:15 AM 39.2 °F 32.5 °F 32.0 °F 75% 30.28 in 5.0 mi SSE 10.4 mph - N/A   Clear
8:35 AM 39.2 °F 32.0 °F 32.0 °F 75% 30.28 in 7.0 mi SSE 11.5 mph - N/A   Clear
8:55 AM 41.0 °F 33.9 °F 32.0 °F 70% 30.28 in 7.0 mi SSE 12.7 mph - N/A   Clear
9:15 AM 42.8 °F 37.0 °F 32.0 °F 66% 30.28 in 7.0 mi SSE 10.4 mph - N/A   Clear
9:35 AM 44.6 °F 39.7 °F 32.0 °F 61% 30.27 in 10.0 mi SSE 9.2 mph - N/A   Clear
9:55 AM 44.6 °F 38.8 °F 32.0 °F 61% 30.28 in 10.0 mi SSE 11.5 mph 16.1 mph N/A   Clear
10:15 AM 46.4 °F 41.5 °F 32.0 °F 57% 30.27 in 10.0 mi SSE 10.4 mph - N/A   Clear
10:35 AM 50.0 °F - 32.0 °F 50% 30.28 in 10.0 mi SSE 8.1 mph - N/A   Clear
10:55 AM 50.0 °F - 32.0 °F 50% 30.27 in 10.0 mi South 12.7 mph - N/A   Clear
11:15 AM 50.0 °F - 32.0 °F 50% 30.27 in 10.0 mi South 11.5 mph 17.3 mph N/A   Clear
11:35 AM 51.8 °F - 32.0 °F 47% 30.26 in 10.0 mi South 10.4 mph 17.3 mph N/A   Clear
11:55 AM 51.8 °F - 32.0 °F 47% 30.25 in 10.0 mi SSE 10.4 mph - N/A   Clear
12:15 PM 53.6 °F - 32.0 °F 44% 30.25 in 10.0 mi South 10.4 mph - N/A   Clear
12:35 PM 53.6 °F - 32.0 °F 44% 30.24 in 10.0 mi South 13.8 mph - N/A   Clear
12:55 PM 55.4 °F - 32.0 °F 41% 30.24 in 10.0 mi South 10.4 mph - N/A   Clear
1:15 PM 55.4 °F - 32.0 °F 41% 30.23 in 10.0 mi South 13.8 mph - N/A   Clear
1:35 PM 55.4 °F - 32.0 °F 41% 30.23 in 10.0 mi South 12.7 mph - N/A   Scattered Clouds
1:55 PM 55.4 °F - 32.0 °F 41% 30.22 in 10.0 mi South 15.0 mph 18.4 mph N/A   Mostly Cloudy
2:15 PM 55.4 °F - 32.0 °F 41% 30.22 in 10.0 mi South 12.7 mph - N/A   Scattered Clouds
2:35 PM 53.6 °F - 32.0 °F 44% 30.22 in 10.0 mi South 12.7 mph 18.4 mph N/A   Mostly Cloudy
2:55 PM 53.6 °F - 32.0 °F 44% 30.22 in 10.0 mi South 9.2 mph - N/A   Overcast
3:15 PM 53.6 °F - 32.0 °F 44% 30.22 in 10.0 mi South 11.5 mph - N/A   Overcast
3:35 PM 51.8 °F - 32.0 °F 47% 30.22 in 10.0 mi SSE 12.7 mph 17.3 mph N/A   Mostly Cloudy
3:55 PM 51.8 °F - 32.0 °F 47% 30.22 in 10.0 mi SSE 9.2 mph - N/A   Clear
4:15 PM 50.0 °F - 32.0 °F 50% 30.22 in 10.0 mi SE 10.4 mph - N/A   Clear
4:35 PM 50.0 °F - 32.0 °F 50% 30.22 in 10.0 mi SSE 9.2 mph - N/A   Clear
4:55 PM 50.0 °F - 32.0 °F 50% 30.22 in 10.0 mi SSE 9.2 mph - N/A   Clear
5:15 PM 50.0 °F - 32.0 °F 50% 30.22 in 10.0 mi SSE 11.5 mph 16.1 mph N/A   Clear
5:35 PM 48.2 °F - 32.0 °F 54% 30.22 in 10.0 mi SSE 12.7 mph - N/A   Clear
5:55 PM 48.2 °F - 32.0 °F 54% 30.22 in 10.0 mi SSE 9.2 mph 16.1 mph N/A   Clear
6:15 PM 46.4 °F 41.1 °F 32.0 °F 57% 30.23 in 10.0 mi SSE 11.5 mph - N/A   Clear
6:35 PM 46.4 °F 40.7 °F 32.0 °F 57% 30.22 in 10.0 mi SSE 12.7 mph - N/A   Clear
6:55 PM 46.4 °F 40.7 °F 32.0 °F 57% 30.23 in 10.0 mi SSE 12.7 mph 16.1 mph N/A   Clear
7:15 PM 46.4 °F 41.5 °F 33.8 °F 62% 30.23 in 10.0 mi SSE 10.4 mph 17.3 mph N/A   Clear
7:35 PM 46.4 °F 41.5 °F 33.8 °F 62% 30.23 in 10.0 mi SSE 10.4 mph - N/A   Clear
7:55 PM 44.6 °F 39.2 °F 33.8 °F 66% 30.22 in 10.0 mi SSE 10.4 mph - N/A   Clear
8:15 PM 44.6 °F 39.2 °F 33.8 °F 66% 30.22 in 10.0 mi SSE 10.4 mph 16.1 mph N/A   Clear
8:35 PM 44.6 °F 39.7 °F 33.8 °F 66% 30.22 in 10.0 mi SSE 9.2 mph - N/A   Clear
8:55 PM 44.6 °F 40.2 °F 33.8 °F 66% 30.22 in 10.0 mi SSE 8.1 mph - N/A   Clear
9:15 PM 44.6 °F 39.7 °F 33.8 °F 66% 30.22 in 10.0 mi SSE 9.2 mph - N/A   Clear
9:35 PM 44.6 °F 40.2 °F 33.8 °F 66% 30.22 in 10.0 mi SSE 8.1 mph - N/A   Clear
9:55 PM 44.6 °F 40.7 °F 33.8 °F 66% 30.22 in 10.0 mi SSE 6.9 mph - N/A   Clear
10:15 PM 44.6 °F 40.7 °F 32.0 °F 61% 30.22 in 10.0 mi SSE 6.9 mph - N/A   Clear
10:35 PM 44.6 °F 40.2 °F 33.8 °F 66% 30.22 in 10.0 mi SSE 8.1 mph - N/A   Mostly Cloudy
10:55 PM 46.4 °F 42.4 °F 32.0 °F 57% 30.23 in 10.0 mi South 8.1 mph - N/A   Overcast
11:15 PM 46.4 °F 41.1 °F 32.0 °F 57% 30.22 in 10.0 mi South 11.5 mph - N/A   Overcast
11:35 PM 46.4 °F 40.4 °F 32.0 °F 57% 30.22 in 10.0 mi South 13.8 mph - N/A   Overcast
11:55 PM 46.4 °F 40.1 °F 32.0 °F 57% 30.21 in 10.0 mi SSE 15.0 mph - N/A   Overcast